Weather Roundup
Issued by NWS

Home | Current Version | Previous Version | Graphics & Text | Print | Product List | Glossary Off
Versions: 1 2 3 4 5 6 7 8 9 10 11 12 13 14 15 16 17 18 19 20 21 22 23 24 25 26 27 28 29 30 31 32 33 34 35 36 37 38 39 40 41 42 43 44 45 46 47 48 49 50

000
NZUS93 KARX 211259
HRRWXR

CURRENT HOURLY OBSERVATIONS ACROSS
MUCH OF THE UPPER MISSISSIPPI VALLEY
NATIONAL WEATHER SERVICE LA CROSSE WI
700 AM CST TUE FEB 21 2017


...SOUTHEAST MINNESOTA...


CITY           SKY/WX    TMP DP  RH WIND       PRES   REMARKS
ROCHESTER      FOG       31  31 100 SW6       29.91S VSB 1/4 WCI  25
ROCHESTER/MAYO CLOUDY    35  35 100 CALM      29.92S VSB 1/4
WINONA         PTCLDY    36  34  93 CALM      29.94S FOG
AUSTIN         MIX PCPN  30  28  93 CALM      29.91F VSB<1/4
ALBERT LEA     FOG       32  32 100 SW3       29.92R VSB 1/4
DODGE CENTER   NOT AVBL
PRESTON        FOG       32  32  99 SW6       29.92F VSB<1/4 WCI  26
OWATONNA       CLEAR     34  32  93 S6        29.91S FOG     WCI  29
FARIBAULT      FOG       30  30 100 CALM      29.91S VSB 1/4
$$

...ELSEWHERE IN MINNESOTA...


CITY           SKY/WX    TMP DP  RH WIND       PRES   REMARKS
MINNEAPOLIS      N/A     34  32  92 VRB5      29.89F FOG     WCI  30
INTNL FALLS    CLOUDY    33  30  88 SW3       29.75S
DULUTH         FOG       33  33 100 W12       29.79S VSB 3/4 WCI  24
RED WING         N/A     30  28  93 CALM      29.91R FOG
REDWOOD FALLS  CLEAR     33  30  88 S8        29.84F WCI  26
MANKATO          N/A     33  32  96 S7        29.91S FOG     WCI  27
WORTHINGTON    CLEAR     39  35  86 S15       29.87F WCI  31
FAIRMONT       CLEAR     32  31  96 S3        29.92R
$$

...SOUTHWEST WISCONSIN...


CITY           SKY/WX    TMP DP  RH WIND       PRES   REMARKS
LA CROSSE      CLOUDY    38  36  92 CALM      29.93S
PRAIRIE DU CHI   N/A     35  34  96 CALM      29.95R FOG
BOSCOBEL       FOG       35  34  96 CALM      29.94R VSB 1/4
LONE ROCK      PTCLDY    40  39  97 SW3       29.94R FOG
PLATTEVILLE    CLEAR     38  38 100 W6        29.92S WCI  34
FORT MC COY    CLOUDY    40  39  95 CALM      29.93S
MAUSTON-NEW LI CLOUDY    43  40  91 W6        29.91R
VIROQUA          N/A     36  36 100 W5        29.92S WCI  32
WIS DELLS      PTCLDY    40  39  96 CALM      29.91R FOG
$$

...ELSEWHERE IN WISCONSIN...


CITY           SKY/WX    TMP DP  RH WIND       PRES   REMARKS
MILWAUKEE      CLOUDY    55  52  89 SW7       29.88S FOG
MADISON        MOCLDY    44  43  96 CALM      29.90R
GREEN BAY      CLEAR     46  44  93 W10       29.86R
EAU CLAIRE     NOT AVBL
BLACK RVR FLS  CLOUDY    40  40  98 W3        29.92F
MEDFORD        CLOUDY    37  35  93 W7        29.87S WCI  31
WAUSAU         CLOUDY    39  36  89 W7        29.86R WCI  34
WIS RAPIDS     CLOUDY    42  40  92 W5        29.91R
MARSHFIELD     CLOUDY    38  36  92 W6        29.89R WCI  33
RICE LAKE      CLOUDY    35  34  96 S6        29.90S FOG     WCI  30
$$

...NORTHEAST IOWA...


CITY           SKY/WX    TMP DP  RH WIND       PRES   REMARKS
WATERLOO       FOG       29  27  92 CALM      29.95R VSB 1/4
DUBUQUE        CLEAR     39  37  92 N8        29.93S WCI  33
DECORAH        PTCLDY    37  37 100 W3        29.92S FOG
MASON CITY     FOG       27  26  96 W3        29.93S VSB 1/4
CHARLES CITY   FOG       32  32 100 CALM      29.94S VSB<1/4
OELWEIN        FOG       30  30 100 CALM      29.94S VSB<1/4
$$

...ELSEWHERE IN IOWA...


CITY           SKY/WX    TMP DP  RH WIND       PRES   REMARKS
DES MOINES     PTCLDY    37  36  96 CALM      29.96R
IOWA CITY      MOCLDY    41  39  93 CALM      29.97R
FORT DODGE     MOCLDY    28  27  93 CALM      29.95R VSB 1/4
MARSHALLTOWN   FOG       32  32 100 CALM      29.95R VSB 1/4
CEDAR RAPIDS   CLOUDY    34  34 100 CALM      29.94S
$$

...NORTHERN ILLINOIS...


CITY           SKY/WX    TMP DP  RH WIND       PRES   REMARKS
CHICAGO-OHARE  LGT RAIN  55  52  89 SW3       29.92R FOG
CHICAGO-MIDWAY LGT RAIN  54  51  90 S7        29.93R FOG
MOLINE         CLOUDY    49  44  83 CALM      29.94F
ROCKFORD       CLOUDY    52  48  86 NW6       29.93S
PEORIA         CLOUDY    56  56 100 W5        29.95R FOG
$$

NOTE: "FAIR" INDICATES FEW OR NO CLOUDS BELOW 12,000 FEET WITH NO
SIGNIFICANT WEATHER AND/OR OBSTRUCTIONS TO VISIBILITY. WIND
SPEEDS ARE IN MILES-PER-HOUR.




USA.gov is the U.S. government's official web portal to all federal, state and local government web resources and services.